Regional Weather Roundup
Issued by NWS Goodland, KS

Home | Current Version | Previous Version | Text Only | Print | Product List | Glossary Off
Versions: 1 2 3 4 5 6 7 8 9 10 11 12 13 14 15 16 17 18 19 20 21 22 23 24 25 26 27 28 29 30 31 32 33 34 35 36 37 38 39 40 41 42 43 44 45 46 47 48 49 50

000
ASUS43 KGLD 211808
RWRGLD

GOODLAND FORECAST AREA HOURLY WEATHER ROUNDUP
NATIONAL WEATHER SERVICE GOODLAND KS
1100 AM MST WED FEB 21 2018

...OFFICIAL OBSERVATIONS...

CITY           SKY/WX    TMP DP  RH WIND       PRES   REMARKS
GOODLAND KS    FAIR      23   5  46 S8        30.37F
HILL CITY KS   FAIR      21   2  43 MISG      30.53F
IMPERIAL NEB   FAIR      19   6  57 SE10      30.40F WCI   7
MCCOOK NEB     FAIR      22   5  48 SE8       30.47F
AKRON CO       FAIR      23   9  55 S15       30.25F WCI  10
BURLINGTON CO  FAIR      21   6  52 S13       30.33F WCI   9
LIMON CO       FAIR      23   7  50 S15       30.21F WCI  10
$$

...UNOFFICIAL OBSERVATIONS...

CITY           SKY/WX    TMP DP  RH WIND       PRES   REMARKS
COLBY KS       FAIR      23   9  54 SE8       30.44F
LENORA KS        N/A     22  32 100 S6          N/A
TRIBUNE KS     CLOUDY    25   3  39 SE8       30.41F
TRENTON NEB      N/A     22  32 100 S6          N/A
$$




USA.gov is the U.S. government's official web portal to all federal, state and local government web resources and services.